Fremont, NE

3:14 PM CDT on April 23, 2017 (GMT -0500)
Fremont Municipal

Weather History for KFET - April, 2013

Change the Weather History Date:

Tuesday, April 9, 2013

  Actual Average Record
Temperature  
Mean Temperature 46 °F -  
Max Temperature 58 °F 61 °F 87 °F (1988)
Min Temperature 33 °F 35 °F 20 °F (1982)
Degree Days  
Heating Degree Days 18    
Moisture  
Dew Point 42 °F    
Average Humidity 97    
Maximum Humidity 100    
Minimum Humidity 90    
Precipitation  
Precipitation 1.15 in - - ()
Sea Level Pressure  
Sea Level Pressure 29.80 in    
Wind  
Wind Speed 13 mph (North)    
Max Wind Speed 22 mph    
Max Gust Speed 40 mph    
Visibility 6 miles    
Events Rain , Snow , Thunderstorm    
Averages and records for this station are not official NWS values.
T = Trace of Precipitation, MM = Missing Value Source: NWS Daily Summary

Daily Weather History Graph

Daily Weather History Graph

Search for Another Location

Airport or City:

Trip Planner

Search our weather history database for the weather conditions in past years. The results will help you decide how hot, cold, wet, or windy it might be!

Date:

Astronomy

Apr. 09, 2013 Rise Set
Actual Time 6:55 AM CDT 8:00 PM CDT
Civil Twilight 6:27 AM CDT 8:28 PM CDT
Nautical Twilight 5:53 AM CDT 9:02 PM CDT
Astronomical Twilight 5:18 AM CDT 9:38 PM CDT
Moon 6:19 AM CDT (4/9) 7:37 PM CDT (4/9)
Length of Visible Light 14h 01m
Length of Day
13h 04m
Waning Crescent, 1% of the Moon is Illuminated
Apr 9
Waning Crescent
Apr 10
New
Apr 18
First Quarter
Apr 25
Full
May 2
Last Quarter

Hourly Weather History & Observations

Time (CDT) Temp. Windchill Dew Point Humidity Pressure Visibility Wind Dir Wind Speed Gust Speed Precip Events Conditions
12:15 AM 60.8 °F - 57.7 °F 90% 29.69 in 10.0 mi ENE 5.8 mph - N/A   Overcast
12:35 AM 57.9 °F - 55.4 °F 91% 29.70 in 7.0 mi NE 11.5 mph 17.3 mph N/A Thunderstorm Overcast
12:55 AM 58.1 °F - 56.5 °F 94% 29.70 in 5.0 mi NE 10.4 mph 16.1 mph N/A   Overcast
1:15 AM 56.8 °F - 55.2 °F 94% 29.69 in 5.0 mi NNE 11.5 mph 17.3 mph N/A Thunderstorm Overcast
1:35 AM 55.4 °F - 54.1 °F 96% 29.67 in 4.0 mi NE 11.5 mph 17.3 mph N/A   Overcast
1:55 AM 54.5 °F - 53.6 °F 97% 29.67 in 4.0 mi NE 16.1 mph 24.2 mph N/A   Overcast
2:15 AM 54.0 °F - 52.7 °F 95% 29.65 in 5.0 mi NE 15.0 mph 21.9 mph N/A   Overcast
2:35 AM 53.6 °F - 52.2 °F 95% 29.64 in 5.0 mi NE 16.1 mph 24.2 mph N/A   Overcast
2:55 AM 53.4 °F - 51.8 °F 94% 29.63 in 5.0 mi ENE 18.4 mph 26.5 mph N/A   Overcast
3:15 AM 52.9 °F - 51.8 °F 96% 29.63 in 4.0 mi ENE 19.6 mph 26.5 mph N/A Rain , Thunderstorm Light Thunderstorms and Rain
3:35 AM 51.8 °F - 50.7 °F 96% 29.61 in 4.0 mi ENE 21.9 mph 28.8 mph N/A   Overcast
3:55 AM 51.1 °F - 50.2 °F 97% 29.61 in 5.0 mi ENE 18.4 mph 26.5 mph N/A Thunderstorm Overcast
4:15 AM 50.9 °F - 50.2 °F 97% 29.60 in 4.0 mi ENE 16.1 mph 25.3 mph 0.04 in Rain Rain
4:35 AM 50.5 °F - 50.0 °F 98% 29.59 in 4.0 mi ENE 13.8 mph 19.6 mph 0.07 in Rain Light Rain
4:55 AM 50.5 °F - 50.0 °F 98% 29.60 in 5.0 mi ENE 12.7 mph 21.9 mph 0.07 in Thunderstorm Overcast
5:15 AM 50.7 °F - 48.6 °F 92% 29.63 in 4.0 mi NNE 13.8 mph 40.3 mph 0.08 in Rain , Thunderstorm Heavy Thunderstorms and Rain
5:35 AM 50.9 °F - 49.3 °F 94% 29.65 in 3.0 mi NNE 11.5 mph 18.4 mph 0.32 in Rain , Thunderstorm Thunderstorms and Rain
5:55 AM 50.0 °F - 48.6 °F 95% 29.70 in 5.0 mi North 11.5 mph 17.3 mph 0.45 in Rain , Thunderstorm Heavy Thunderstorms and Rain
6:15 AM 49.3 °F - 48.2 °F 96% 29.67 in 10.0 mi NE 11.5 mph 18.4 mph 0.07 in Rain , Thunderstorm Light Thunderstorms and Rain
6:35 AM 49.8 °F - 48.7 °F 96% 29.68 in 7.0 mi NNE 9.2 mph 17.3 mph 0.07 in Rain Light Rain
6:55 AM 49.3 °F - 48.2 °F 96% 29.69 in 10.0 mi NNW 5.8 mph - 0.08 in   Light Drizzle
7:15 AM 48.6 °F - 47.3 °F 95% 29.73 in 7.0 mi NNW 11.5 mph - N/A Rain Rain
7:35 AM 45.3 °F 39.7 °F 44.6 °F 97% 29.73 in 7.0 mi North 11.5 mph - N/A   Overcast
7:55 AM 44.2 °F 38.8 °F 43.7 °F 98% 29.74 in 10.0 mi North 10.4 mph 20.7 mph N/A   Overcast
8:15 AM 44.1 °F 38.1 °F 43.5 °F 98% 29.76 in 10.0 mi North 11.5 mph 19.6 mph N/A   Overcast
8:35 AM 43.9 °F 37.9 °F 43.7 °F 99% 29.76 in 7.0 mi North 11.5 mph 19.6 mph N/A   Light Drizzle
8:55 AM 43.7 °F 37.7 °F 43.2 °F 98% 29.76 in 10.0 mi North 11.5 mph 19.6 mph N/A   Overcast
9:15 AM 44.1 °F 38.1 °F 43.3 °F 97% 29.76 in 10.0 mi North 11.5 mph 19.6 mph N/A   Overcast
9:35 AM 43.7 °F 37.7 °F 42.8 °F 97% 29.78 in 7.0 mi North 11.5 mph 17.3 mph N/A   Drizzle
9:55 AM 42.8 °F 34.0 °F 41.9 °F 97% 29.78 in 10.0 mi North 20.7 mph 26.5 mph 0.01 in   Overcast
10:15 AM 42.4 °F 35.0 °F 41.0 °F 95% 29.80 in 10.0 mi North 15.0 mph 23.0 mph N/A   Overcast
10:35 AM 41.9 °F 34.6 °F 40.8 °F 96% 29.81 in 7.0 mi North 13.8 mph 24.2 mph N/A   Overcast
10:55 AM 41.4 °F 34.7 °F 40.5 °F 97% 29.82 in 3.0 mi North 11.5 mph 27.6 mph N/A   Overcast
11:15 AM 41.0 °F 33.5 °F 40.5 °F 98% 29.83 in 3.0 mi North 13.8 mph 24.2 mph N/A   Overcast
11:35 AM 41.0 °F 32.2 °F 40.5 °F 98% 29.84 in 2.5 mi North 18.4 mph 28.8 mph N/A Rain Light Rain
11:55 AM 40.6 °F 33.0 °F 40.5 °F 99% 29.84 in 3.0 mi North 13.8 mph 26.5 mph N/A   Light Drizzle
12:15 PM 40.5 °F 31.8 °F 40.3 °F 99% 29.85 in 3.0 mi North 17.3 mph 26.5 mph N/A   Overcast
12:35 PM 40.3 °F 31.6 °F 40.1 °F 99% 29.87 in 5.0 mi North 17.3 mph 24.2 mph N/A   Overcast
12:55 PM 40.6 °F 33.0 °F 40.1 °F 98% 29.87 in 5.0 mi North 13.8 mph 23.0 mph N/A   Light Drizzle
1:15 PM 40.5 °F 32.1 °F 40.1 °F 99% 29.87 in 7.0 mi North 16.1 mph 25.3 mph N/A Rain Light Rain
1:35 PM 39.0 °F 31.8 °F 38.5 °F 98% 29.86 in 5.0 mi North 11.5 mph 28.8 mph 0.01 in Rain Rain
1:55 PM 38.8 °F 29.1 °F 38.3 °F 98% 29.86 in 10.0 mi North 19.6 mph 26.5 mph 0.01 in   Overcast
2:15 PM 38.5 °F 28.6 °F 37.6 °F 97% 29.85 in 10.0 mi North 19.6 mph 32.2 mph N/A   Overcast
2:35 PM 38.7 °F 29.1 °F 37.6 °F 96% 29.87 in 10.0 mi North 18.4 mph 28.8 mph N/A   Overcast
2:55 PM 38.8 °F 31.6 °F 37.4 °F 95% 29.89 in 10.0 mi North 11.5 mph 27.6 mph N/A   Overcast
3:15 PM 38.7 °F 29.8 °F 37.4 °F 95% 29.87 in 10.0 mi North 16.1 mph 24.2 mph N/A   Overcast
3:35 PM 38.3 °F 29.3 °F 37.2 °F 96% 29.86 in 5.0 mi North 16.1 mph 27.6 mph N/A   Drizzle
3:55 PM 38.1 °F 28.8 °F 37.4 °F 97% 29.86 in 4.0 mi North 17.3 mph 26.5 mph N/A   Light Drizzle
4:15 PM 37.6 °F 29.6 °F 37.4 °F 99% 29.86 in 3.0 mi North 12.7 mph 25.3 mph 0.01 in Rain Rain
4:35 PM 37.4 °F 29.3 °F 37.0 °F 99% 29.85 in 5.0 mi North 12.7 mph 21.9 mph 0.01 in Rain , Thunderstorm Light Thunderstorms and Rain
4:55 PM 37.0 °F 29.3 °F 36.5 °F 98% 29.86 in 7.0 mi North 11.5 mph 24.2 mph 0.01 in Thunderstorm Overcast
5:15 PM 36.9 °F 29.6 °F 36.5 °F 99% 29.86 in 5.0 mi North 10.4 mph 21.9 mph 0.01 in   Drizzle
5:35 PM 36.5 °F 28.2 °F 36.0 °F 98% 29.88 in 10.0 mi North 12.7 mph 19.6 mph 0.01 in Thunderstorm Overcast
5:55 PM 36.0 °F 27.1 °F 35.6 °F 99% 29.86 in 4.0 mi North 13.8 mph 23.0 mph 0.04 in Rain , Thunderstorm Light Thunderstorms and Rain
6:15 PM 35.6 °F 27.1 °F 35.2 °F 99% 29.86 in 7.0 mi North 12.7 mph 23.0 mph 0.01 in Thunderstorm Unknown
6:35 PM 34.3 °F 23.5 °F 34.0 °F 99% 29.93 in 3.0 mi NW 18.4 mph 35.7 mph 0.02 in Rain , Thunderstorm Light Thunderstorms and Rain
6:55 PM 33.8 °F 24.8 °F 33.8 °F 100% 29.93 in 2.5 mi NNW 12.7 mph 25.3 mph 0.04 in Rain , Thunderstorm Light Thunderstorms and Rain
7:15 PM 33.8 °F 23.2 °F 33.8 °F 100% 29.93 in 5.0 mi North 17.3 mph 21.9 mph 0.01 in Rain , Thunderstorm Thunderstorms and Rain
7:35 PM 34.0 °F 23.4 °F 33.8 °F 99% 29.91 in 10.0 mi North 17.3 mph 26.5 mph 0.04 in Rain , Thunderstorm Light Thunderstorms and Rain
7:55 PM 33.4 °F 22.7 °F 33.3 °F 99% 29.88 in 5.0 mi North 17.3 mph 26.5 mph 0.08 in Thunderstorm Thunderstorm
8:15 PM 33.4 °F 22.7 °F 33.1 °F 99% 29.95 in 2.5 mi NNW 17.3 mph 24.2 mph 0.07 in Snow , Thunderstorm Light Thunderstorms and Snow
8:35 PM 33.8 °F 25.3 °F 33.3 °F 98% 29.93 in 7.0 mi North 11.5 mph 18.4 mph 0.09 in Thunderstorm Thunderstorm
8:55 PM 33.8 °F 23.9 °F 33.3 °F 98% 29.92 in 7.0 mi North 15.0 mph 21.9 mph 0.09 in Thunderstorm Thunderstorm
9:15 PM 33.8 °F 23.9 °F 33.4 °F 99% 29.98 in 5.0 mi NNW 15.0 mph 20.7 mph N/A Thunderstorm Unknown
9:55 PM 38.1 °F 30.2 °F 36.9 °F 95% 29.92 in 7.0 mi NNE 12.7 mph 27.6 mph 0.26 in Rain , Thunderstorm Light Thunderstorms and Rain
10:15 PM 38.7 °F 30.1 °F 37.4 °F 95% 29.95 in 7.0 mi North 15.0 mph 20.7 mph 0.01 in Rain , Thunderstorm Light Thunderstorms and Rain
10:35 PM 34.3 °F 25.5 °F 34.0 °F 99% 29.94 in 10.0 mi NNW 12.7 mph 23.0 mph 0.01 in   Overcast
10:55 PM 34.2 °F 24.8 °F 34.0 °F 99% 29.96 in 10.0 mi North 13.8 mph 20.7 mph 0.01 in   Overcast
11:15 PM 34.2 °F 26.2 °F 33.8 °F 99% 29.94 in 10.0 mi NNW 10.4 mph 16.1 mph N/A Thunderstorm Overcast
11:35 PM 34.2 °F 24.8 °F 33.8 °F 99% 29.92 in 10.0 mi North 13.8 mph 17.3 mph N/A   Overcast
11:55 PM 34.3 °F 27.0 °F 33.6 °F 97% 29.99 in 10.0 mi NNW 9.2 mph 17.3 mph N/A   Overcast